Tracking 18710 objects as of 29-June-2017
HD Live streaming from Space Station
objects crossing your sky now

OPS 9332 (IDSCS 17)

Track OPS 9332 (IDSCS 17) now!
OPS 9332 (IDSCS 17) is classified as:


NORAD ID: 2863
Int'l Code: 1967-066B
Perigee: 33,027.6 km
Apogee: 33,560.9 km
Inclination: 4.8 °
Period: 1,310.3 minutes
Semi major axis: 39665 km
RCS: 0.6309 m2 (medium)
Launch date: July 1, 1967
Source: United States (US)
Launch site: AIR FORCE EASTERN TEST RANGE (AFETR)
Your satellite tracking list
Your tracking list is empty





NASA's NSSDC Master Catalog

Two Line Element Set (TLE):
1  2863U 67066B   17178.76090897 -.00000122 +00000-0 +00000-0 0  9990
2  2863 004.8166 292.4886 0067216 340.2137 015.3255 01.09897436088854
Source of the keplerian elements: AFSPC